Weather History for Ann Arbor, MI

Change the Weather History Date:

Sunday, October 13, 2013

  Actual Average Record
Temperature  
Mean Temperature 56 °F -  
Max Temperature 69 °F 59 °F 79 °F (2008)
Min Temperature 41 °F 35 °F 23 °F (2012)
Degree Days  
Heating Degree Days 8    
Growing Degree Days 6 (Base 50)    
Moisture  
Dew Point 47 °F    
Average Humidity 76    
Maximum Humidity 100    
Minimum Humidity 32    
Precipitation  
Precipitation 0.00 in - - ()
Sea Level Pressure  
Sea Level Pressure 30.20 in    
Wind  
Wind Speed 3 mph (NW)    
Max Wind Speed 12 mph    
Max Gust Speed 17 mph    
Visibility 6 miles    
Events Fog    
Averages and records for this station are not official NWS values.
T = Trace of Precipitation, MM = Missing Value Source: NWS Daily Summary

Daily Weather History Graph

Daily Weather History Graph

Search for Another Location

Airport:

Trip Planner

Search our weather history database for the weather conditions in past years. The results will help you decide how hot, cold, wet, or windy it might be!

Date:

Astronomy

Oct. 13, 2013 Rise Set
Actual Time 7:45 AM EDT 6:55 PM EDT
Civil Twilight 7:17 AM EDT 7:24 PM EDT
Nautical Twilight 6:44 AM EDT 7:56 PM EDT
Astronomical Twilight 6:12 AM EDT 8:28 PM EDT
Moon 3:52 PM EDT (10/13) 1:48 AM EDT (10/13)
Length of Visible Light 12h 06m
Length of Day
11h 10m
Waxing Gibbous, 69% of the Moon is Illuminated
Oct 13
Waxing Gibbous
Oct 18
Full
Oct 26
Last Quarter
Nov 3
New
Nov 10
First Quarter

Hourly Weather History & Observations

Time (EDT) Temp. Windchill Dew Point Humidity Pressure Visibility Wind Dir Wind Speed Gust Speed Precip Events Conditions
12:01 AM 53.6 °F - 53.6 °F 100% 30.10 in 1.8 mi Calm Calm - N/A   Scattered Clouds
12:04 AM 53.6 °F - 53.6 °F 100% 30.10 in 3.0 mi Calm Calm - N/A   Scattered Clouds
12:08 AM 51.8 °F - 51.8 °F 100% 30.09 in 1.2 mi Calm Calm - N/A   Scattered Clouds
12:12 AM 51.8 °F - 51.8 °F 100% 30.10 in 0.5 mi Calm Calm - N/A Fog Fog
12:26 AM 53.6 °F - 51.8 °F 94% 30.09 in 0.2 mi Calm Calm - N/A Fog Fog
12:53 AM 50.0 °F - 48.9 °F 96% 30.09 in 0.2 mi Calm Calm - N/A Fog Fog
1:23 AM 51.8 °F - 51.8 °F 100% 30.11 in 1.5 mi WNW 3.5 mph - N/A   Scattered Clouds
1:30 AM 51.8 °F - 51.8 °F 100% 30.11 in 0.8 mi Calm Calm - N/A   Mist
1:38 AM 53.6 °F - 51.8 °F 94% 30.11 in 0.2 mi Calm Calm - N/A Fog Fog
1:53 AM 53.1 °F - 52.0 °F 96% 30.12 in 0.2 mi WNW 3.5 mph - N/A Fog Fog
2:07 AM 51.8 °F - 51.8 °F 100% 30.12 in 0.2 mi Calm Calm - N/A Fog Fog
2:46 AM 53.6 °F - 53.6 °F 100% 30.13 in 0.5 mi Calm Calm - N/A Fog Fog
2:53 AM 54.0 °F - 53.1 °F 97% 30.13 in 0.5 mi Calm Calm - N/A Fog Fog
3:08 AM 55.4 °F - 55.4 °F 100% 30.14 in 1.5 mi West 4.6 mph - N/A   Overcast
3:15 AM 55.4 °F - 55.4 °F 100% 30.14 in 2.0 mi WNW 4.6 mph - N/A   Overcast
3:25 AM 57.2 °F - 57.2 °F 100% 30.14 in 4.0 mi WNW 3.5 mph - N/A   Overcast
3:53 AM 59.0 °F - 57.9 °F 96% 30.14 in 8.0 mi WNW 6.9 mph - N/A   Mostly Cloudy
4:53 AM 60.1 °F - 57.0 °F 90% 30.15 in 7.0 mi NW 6.9 mph - N/A   Partly Cloudy
5:53 AM 59.0 °F - 54.0 °F 83% 30.18 in 10.0 mi NW 11.5 mph - N/A   Mostly Cloudy
6:53 AM 57.9 °F - 51.1 °F 78% 30.22 in 10.0 mi NNW 9.2 mph - N/A   Clear
7:53 AM 55.9 °F - 48.0 °F 75% 30.23 in 10.0 mi NNW 10.4 mph - N/A   Clear
8:53 AM 57.0 °F - 50.0 °F 77% 30.26 in 10.0 mi NNW 5.8 mph - N/A   Clear
9:53 AM 59.0 °F - 45.0 °F 60% 30.28 in 10.0 mi North 10.4 mph - N/A   Clear
10:53 AM 62.1 °F - 39.9 °F 44% 30.30 in 10.0 mi NW 11.5 mph 17.3 mph N/A   Clear
11:53 AM 64.0 °F - 37.9 °F 38% 30.30 in 10.0 mi North 11.5 mph - N/A   Clear
12:53 PM 64.9 °F - 37.9 °F 37% 30.30 in 10.0 mi NNW 8.1 mph - N/A   Clear
1:53 PM 66.9 °F - 37.9 °F 34% 30.28 in 10.0 mi NW 4.6 mph - N/A   Clear
2:53 PM 68.0 °F - 37.0 °F 32% 30.27 in 10.0 mi NNW 6.9 mph - N/A   Clear
3:53 PM 68.0 °F - 37.9 °F 33% 30.27 in 10.0 mi West 8.1 mph - N/A   Clear
4:53 PM 68.0 °F - 37.9 °F 33% 30.27 in 10.0 mi NNW 11.5 mph - N/A   Clear
5:53 PM 66.0 °F - 35.1 °F 32% 30.28 in 10.0 mi NNW 8.1 mph - N/A   Clear
6:53 PM 61.0 °F - 37.0 °F 41% 30.29 in 10.0 mi North 5.8 mph - N/A   Clear
7:53 PM 46.9 °F - 37.9 °F 71% 30.32 in 10.0 mi NW 3.5 mph - N/A   Clear
8:53 PM 45.0 °F - 39.9 °F 82% 30.33 in 10.0 mi Calm Calm - N/A   Clear
9:53 PM 54.0 °F - 41.0 °F 62% 30.34 in 10.0 mi NNW 5.8 mph - N/A   Clear
10:53 PM 52.0 °F - 41.0 °F 66% 30.35 in 10.0 mi North 3.5 mph - N/A   Clear
11:53 PM 41.0 °F 39.0 °F 37.0 °F 86% 30.35 in 10.0 mi NW 3.5 mph - N/A   Clear